Adrian, MI

10:50 AM EST on February 20, 2017 (GMT -0500)
Lenawee County

Weather History for KADG - August, 2013

Change the Weather History Date:

Tuesday, August 20, 2013

  Actual Average Record
Temperature  
Mean Temperature 70 °F -  
Max Temperature 84 °F 79 °F 93 °F (1955)
Min Temperature 57 °F 55 °F 44 °F (1977)
Cooling Degree Days 4    
Growing Degree Days 20 (Base 50)    
Moisture  
Dew Point 62 °F    
Average Humidity 78    
Maximum Humidity 100    
Minimum Humidity 51    
Precipitation  
Precipitation 0.00 in - - ()
Sea Level Pressure  
Sea Level Pressure 30.13 in    
Wind  
Wind Speed 1 mph (WSW)    
Max Wind Speed 9 mph    
Max Gust Speed -    
Visibility 7 miles    
Events      
Averages and records for this station are not official NWS values.
T = Trace of Precipitation, MM = Missing Value Source: NWS Daily Summary

Daily Weather History Graph

Daily Weather History Graph

Search for Another Location

Airport or City:

Trip Planner

Search our weather history database for the weather conditions in past years. The results will help you decide how hot, cold, wet, or windy it might be!

Date:

Astronomy

Aug. 20, 2013 Rise Set
Actual Time 6:49 AM EDT 8:28 PM EDT
Civil Twilight 6:20 AM EDT 8:58 PM EDT
Nautical Twilight 5:44 AM EDT 9:33 PM EDT
Astronomical Twilight 5:06 AM EDT 10:11 PM EDT
Moon 7:58 PM EDT 6:19 AM EDT
Length of Visible Light 14h 37m
Length of Day
13h 38m
Full, 100% of the Moon is Illuminated
Aug 20
Full
Aug 20
Full
Aug 28
Last Quarter
Sep 5
New
Sep 12
First Quarter

Hourly Weather History & Observations

Time (EDT) Temp. Heat Index Dew Point Humidity Pressure Visibility Wind Dir Wind Speed Gust Speed Precip Events Conditions
12:53 AM 62.1 °F - 61.0 °F 96% 30.10 in 5.0 mi Calm Calm - N/A   Clear
1:53 AM 60.1 °F - 57.9 °F 93% 30.11 in 5.0 mi Calm Calm - N/A   Clear
2:53 AM 57.9 °F - 57.9 °F 100% 30.10 in 4.0 mi Calm Calm - N/A   Partly Cloudy
3:53 AM 60.1 °F - 57.9 °F 93% 30.11 in 5.0 mi Calm Calm - N/A   Clear
4:53 AM 59.0 °F - 57.9 °F 96% 30.12 in 4.0 mi Calm Calm - N/A   Scattered Clouds
5:53 AM 59.0 °F - 57.0 °F 93% 30.12 in 6.0 mi Calm Calm - N/A   Clear
6:53 AM 59.0 °F - 57.0 °F 93% 30.14 in 4.0 mi Calm Calm - N/A   Scattered Clouds
7:07 AM 57.2 °F - 57.2 °F 100% 30.15 in 2.5 mi Calm Calm - N/A   Partly Cloudy
7:17 AM 57.2 °F - 57.2 °F 100% 30.15 in 3.0 mi WSW 3.5 mph - N/A   Partly Cloudy
7:53 AM 61.0 °F - 60.1 °F 97% 30.16 in 3.0 mi Calm Calm - N/A   Clear
8:53 AM 66.0 °F - 63.0 °F 90% 30.17 in 7.0 mi WSW 3.5 mph - N/A   Clear
9:53 AM 73.0 °F - 64.9 °F 76% 30.18 in 10.0 mi SW 4.6 mph - N/A   Clear
10:53 AM 77.0 °F - 64.9 °F 66% 30.18 in 10.0 mi West 5.8 mph - N/A   Clear
11:53 AM 80.1 °F 81.7 °F 64.0 °F 58% 30.17 in 10.0 mi WSW 4.6 mph - N/A   Clear
12:53 PM 81.0 °F 82.2 °F 63.0 °F 54% 30.17 in 10.0 mi SW 9.2 mph - N/A   Scattered Clouds
1:53 PM 81.0 °F 82.5 °F 64.0 °F 56% 30.15 in 10.0 mi SW 4.6 mph - N/A   Partly Cloudy
2:53 PM 81.0 °F 82.5 °F 64.0 °F 56% 30.15 in 10.0 mi WSW 5.8 mph - N/A   Scattered Clouds
3:53 PM 81.0 °F 82.5 °F 64.0 °F 56% 30.13 in 10.0 mi Calm Calm - N/A   Overcast
4:53 PM 82.0 °F 83.4 °F 64.0 °F 54% 30.11 in 10.0 mi Calm Calm - N/A   Mostly Cloudy
5:53 PM 82.9 °F 84.0 °F 63.0 °F 51% 30.11 in 10.0 mi Calm Calm - N/A   Mostly Cloudy
6:53 PM 82.0 °F 83.1 °F 63.0 °F 52% 30.10 in 10.0 mi WSW 4.6 mph - N/A   Clear
7:53 PM 79.0 °F - 64.9 °F 62% 30.11 in 10.0 mi Calm Calm - N/A   Clear
8:53 PM 73.9 °F - 64.9 °F 73% 30.12 in 7.0 mi Calm Calm - N/A   Clear
9:53 PM 72.0 °F - 64.9 °F 78% 30.12 in 10.0 mi Calm Calm - N/A   Clear
10:53 PM 66.9 °F - 64.0 °F 90% 30.13 in 9.0 mi Calm Calm - N/A   Clear
11:53 PM 66.0 °F - 64.0 °F 93% 30.14 in 7.0 mi Calm Calm - N/A   Clear